Regional Weather Roundup
Issued by NWS Wakefield, VA

Home | Current Version | Previous Version | Text Only | Print | Product List | Glossary Off
Versions: 1 2 3 4 5 6 7 8 9 10 11 12 13 14 15 16 17 18 19 20 21 22 23 24 25 26 27 28 29 30 31 32 33 34 35 36 37 38 39 40 41 42 43 44 45 46 47 48 49 50

000
ASUS41 KAKQ 202115
RWRAKQ

REGIONAL WEATHER ROUNDUP
NATIONAL WEATHER SERVICE WAKEFIELD VA
500 PM EDT FRI OCT 20 2017

Note: "fair" indicates few or no clouds below 12,000 feet with no
significant weather and/or obstructions to visibility. * = Denotes
station may not report precipitation (e.g., rain,snow,etc.),
thunder or fog.

VAZ042-051-052>054-056-202200-
NORTHERN VIRGINIA

CITY           SKY/WX    TMP DP  RH WIND       PRES   REMARKS
WASH NATIONAL  MOSUNNY   75  46  35 NW10      30.19S
DULLES         MOSUNNY   74  43  32 N8        30.20S
FORT BELVOIR   SUNNY     75  42  29 N6        30.19S
QUANTICO       MOSUNNY   77  45  32 N7        30.20S
FREDERICKSBRG* SUNNY     76  48  36 NW5       30.18S
STAFFORD*      SUNNY     74  44  33 N5        30.23S
WARRENTON      SUNNY     77  35  21 NW6       30.19S
CULPEPER*      SUNNY     76  42  29 N3        30.20S
MANASSAS*      SUNNY     75  44  33 N10       30.19F
LEESBURG*      SUNNY     73  48  40 NW6       30.21S
WINCHESTER     SUNNY     72  43  35 NW5       30.21S
FRONT ROYAL*   CLEAR     73  41  31 CALM      30.20S
LURAY*         CLEAR     77  46  33 NE6       30.20S
$$

VAZ048-049-060>072-079>083-202200-
CENTRAL AND SOUTH CENTRAL VIRGINIA

CITY           SKY/WX    TMP DP  RH WIND       PRES   REMARKS
RICHMOND       MOSUNNY   77  53  43 N9        30.18S
CHESTERFIELD*  NOT AVBL
PETERSBURG*    SUNNY     76  50  39 NW6       30.19S
HANOVER        SUNNY     77  53  43 CALM      30.19F
TAPPAHANNOCK*  SUNNY     77  34  21 N6        30.19S
QUINTON*       FAIR      75  53  46 NW3       30.18S
CHARLOTTSVILLE SUNNY     79  47  32 CALM      30.19S
GORDONSVILLE*  CLEAR     77  50  37 CALM      30.18S
ORANGE*        SUNNY     75  50  41 CALM      30.19S
LOUISA*        SUNNY     75  48  38 NE3       30.19R
BUMPASS*       FAIR      76  54  46 CALM      30.19S
FARMVILLE*     SUNNY     80  49  34 CALM      30.18S
CREWE*         FAIR      76  49  37 CALM      30.19S
FORT PICKETT*  FAIR      76  48  36 NE5       30.19F
CHASE CITY*    FAIR      78  48  34 NW5       30.19S
CLARKSVILLE*   FAIR      77  50  38 CALM      30.19S
SOUTH HILL*    SUNNY     76  51  40 CALM      30.25S
LAWRENCEVILLE* FAIR      76  48  37 CALM      30.19S
EMPORIA*       SUNNY     75  50  41 N3        30.20S
$$

VAZ088>098-202200-
SOUTHEAST VIRGINIA

CITY           SKY/WX    TMP DP  RH WIND       PRES   REMARKS
NORFOLK        SUNNY     73  53  49 CALM      30.18F
VIRGINIA BEACH MOSUNNY   72  55  55 NW5       30.17S
NORFOLK NAVAL  MOSUNNY   73  52  47 CALM      30.20S
WEST POINT*    SUNNY     76  51  41 NW5       30.19S
SALUDA*        FAIR      71  61  71 E3        30.18S
NEWPORT NEWS   SUNNY     74  56  53 VRB5      30.18F
LANGLEY AFB    SUNNY     72  55  53 E3        30.18S
FORT EUSTIS    SUNNY     80  56  43 S6        30.15F
WILLIAMSBURG*  SUNNY     79  57  47 CALM      30.19S
HR EXEC AP*    NOT AVBL
FRANKLIN*      SUNNY     76  51  41 CALM      30.19R
US460-WAKEFLD  SUNNY     78  53  41 VRB3      30.18F
$$

VAZ020-022-025-037-045-202200-
WEST CENTRAL AND SOUTHWEST VIRGINIA

CITY           SKY/WX    TMP DP  RH WIND       PRES   REMARKS
STAUNTON*      SUNNY     74  48  39 NE8       30.23S
WAYNESBORO*    CLEAR     74  47  39 N3        30.22S
HOT SPRINGS VA SUNNY     66  41  39 CALM      30.31R
LYNCHBURG      SUNNY     76  47  35 CALM      30.21S
DANVILLE       SUNNY     78  48  34 NE5       30.20S
SOUTH BOSTON*  FAIR      77  44  30 CALM      30.20S
MARTINSVILLE   SUNNY     76  48  37 CALM      30.22F
ROANOKE        SUNNY     76  51  41 VRB3      30.22F
BLACKSBURG     SUNNY     73  49  43 CALM      30.27F
DUBLIN*        SUNNY     73  48  40 NE3       30.26S
MARION*        SUNNY     73  37  26 NW5       30.28S
HILLSVILLE*    SUNNY     70  37  30 CALM      30.26S
RICHLANDS*     FAIR      72 -36   1 CALM      30.28S
WISE*          SUNNY     70  45  40 NE6       30.29F
ABINGDON*      SUNNY     75  46  35 W3        30.25F
$$

MDZ021>025-VAZ099-100-202200-
SOUTHERN MARYLAND AND THE DELMARVA PENINSULA

CITY           SKY/WX    TMP DP  RH WIND       PRES   REMARKS
PATUXENT RIVER MOSUNNY   73  53  49 N6        30.17F
BAY BRIDGE APT SUNNY     72  46  40 N3        30.18S
LEONARDTOWN    NOT AVBL
DOVER          SUNNY     73  41  31 SW2       30.12R
GEORGETOWN     SUNNY     74  39  28 N5        30.17S
EASTON         SUNNY     73  45  35 NW6       30.21F
CAMBRIDGE      SUNNY     72  48  43 NW5       30.18S
SALISBURY      SUNNY     74  48  39 W7        30.16S
OCEAN CITY     SUNNY     71  54  54 MISG      30.16S
WALLOPS ISLAND SUNNY     70  59  68 MISG      30.17S
ACCOMACK*      SUNNY     72  53  51 NW3       30.17S
$$

NCZ012>017-030>032-202200-
NORTH CENTRAL AND EASTERN NORTH CAROLINA

CITY           SKY/WX    TMP DP  RH WIND       PRES   REMARKS
ROANOKE RAPIDS FAIR      75  52  43 NE5       30.19S
RALEIGH        MOSUNNY   76  48  37 E6        30.20S
ELIZABETH CITY SUNNY     73  54  51 E7        30.18S
AHOSKIE*       SUNNY     74  52  45 N3        30.19S
EDENTON*       SUNNY     76  55  47 CALM      30.19R
CURRITUCK*     SUNNY     72  54  54 CALM      30.19S
KILL DEVIL HLS SUNNY     70  56  60 CALM      30.18S
MANTEO         SUNNY    N/A N/A N/A NE7       30.19S
CAPE HATTERAS  SUNNY     75  55  49 CALM      30.18S
TARBORO*       NOT AVBL
GOLDSBORO      NOT AVBL
WASHINGTON     SUNNY     78  50  37 N5        30.18S
GREENVILLE     SUNNY     79  45  29 CALM      30.19S
NEW BERN       SUNNY     78  49  35 SE3       30.18S
WILMINGTON     SUNNY     79  52  38 E5        30.17F
$$

VAZ048-202200-
ELSEWHERE

CITY           SKY/WX    TMP DP  RH WIND       PRES   REMARKS
HARRISBURG PA  MOSUNNY   71  40  32 W6        30.18S
BALTIMORE      MOSUNNY   74  40  29 NW8       30.17F
ANNAPOLIS      SUNNY     76  48  37 NW7       30.17F
ANDREWS AFB    SUNNY     73  44  35 N7        30.18S
PHILADELPHIA   MOSUNNY   73  35  25 NW13      30.15F
HENDERSON NC   SUNNY     74  46  37 E3        30.20F
GREENSBORO     MOSUNNY   76  46  34 NE5       30.20F
ROCKY MOUNT    SUNNY     77  50  38 N6        30.19S
$$

VAZ100-202200-
MARINE

STATION/POSITION TIME  TEMP    WIND        PRES    WAVE   SWELL
                       AIR SEA DIR/SP/G            HT/PER HT/PER
                 (UTC) (F)     (DEG/KT/KT) (MB)    (FT/S) (FT/S)
BRANDYWINE LGT   2042   70     330/  6/  9 1021.5F
CAPE MAY NJ      2042   68 65  310/  7/  8 1020.6F
LEWES DE         2042   68 66   10/  4/  7 1021.0F
15NM E FENWICK I 2050   69 67  330/ 10/ 12 1021.4F   3/ 8   2/ 8
OCEAN-CITY-INLET 2042   70 67   70/  5/  8 1021.6F
WACHAPREAGUE VA  2042   72 68  310/  4/  8 1021.7F
THOMAS POINT MD  2100   71 67   40/  3/  3   N/A
GOOSES REEF MD   2100   72 69   40/  2/  4 1027.6    0
COVE POINT MD    2042   69     360/  3/  5 1022.6S
SOLOMONS ISLAND  2042   73 70  320/  3/  8 1021.4F
BISHOPS HEAD MD  2042   69 67  280/  8/ 10 1022.1F
PINEY POINT MD   1942          310/  9/ 10   N/A
POTOMAC MD       2100   71 70   40/  4/  6 1021.4    0
CAMBRIDGE MD     2042   73 67              1022.7F
LEWISETTA VA     2042   73 65  320/  7/  8 1021.8F
RAPPAHANNOCK LGT 2042          350/  7/  8 1022.6R
STINGRAY PT      2100   70 69   70/  8/  8 1022.4    1/ 2
YORK RVR RNG VA  2042   70     100/  5/  5 1022.5F
YORKTOWN VA      2042   71 70  110/  4/  5 1021.6F
JAMESTOWN VA     2100      71  170/  2/  4   N/A     0
DOMINION TERM VA 2042   70     110/  6/  7 1022.3F
KIPTOPEKE VA     2042      67  330/  8/  9   N/A
CAPE HENRY VA    2042   69     320/  6/  7   N/A
WILLOUBY STN VA  2042   69      90/  4/  4 1022.1F
S CRANEY ISL VA  2042   72      30/  2/  4 1021.8F
CAPE HENRY BUOY  2100      71                N/A     2/ 8
1ST LANDING BUOY 2100   70 70              1022.0    1/ 3
CAPE CHARLES BUO 2051      70                N/A     2/ 8
64NM E OF VA BCH 2050   68 68  360/  6/  8 1022.2S   3/ 9   2/ 9
DUCK PIER NC     2042   69 71   40/  6/  6 1021.7F
44100 DUCK FRF   2035      71                N/A     3/ 8
44056 DUCK FRF   2100      70                N/A     2/ 8
OREGON INLET NC  2042   70 69   10/  8/ 10 1022.0F
HATTERAS NC      2042   72 71  330/  3/  3 1021.9F
DIAMOND SHLS NC  2050   73 81  350/  6/ 10 1021.9F   3/ 9   3/ 9
CAPE LOOKOUT NC  2100   73     170/  3/  4 1021.8R
$$



USA.gov is the U.S. government's official web portal to all federal, state and local government web resources and services.